Location: D�nning
(49.2479°N, 12.8491°E)
Time: 23:00:27
(UTC+00:00)

ATLAS 3B R/B - Pass Details

Date: 18 September 2020
Orbit: 1016 x 1179 km, 63.8° (Epoch: 28 October)

Event Time Altitude Azimuth Distance (km) Brightness Sun altitude
Rises 17:39:39 0° 303° (WNW) 3,782 7.0 -4.9°
Reaches altitude 10° 17:42:48 10° 316° (NW) 2,845 5.8 -5.4°
Maximum altitude 17:48:11 25° 10° (N) 2,007 4.2 -6.3°
Drops below altitude 10° 17:53:41 10° 63° (ENE) 2,924 4.5 -7.2°
Enters shadow 17:55:34 - 72° (ENE) 3,471 4.8 -7.5°
